Effective Sunday, March 17, 2024, the National Weather Service National Data Buoy Center will discontinue its Dial-A-Buoy Interactive Voice Response system. For more information, see Service Change Notice 24-06 (PDF).

Station RCMC1 - 9414863 - Richmond, CA Image indicating link to RSS feed of recent meteorological observations for station RCMC1


Conditions at RCMC1 as of
(2:30 pm PST)
2230 GMT on 02/21/2024:
     

Click on the graph icon in the table below to see a time series plot of the last five days of that observation.

5-day plot - Wind Direction Wind Direction (WDIR): SW ( 220 deg true )
5-day plot - Wind Speed Wind Speed (WSPD): 1.9 kts
5-day plot - Wind Gust Wind Gust (GST): 6.0 kts
5-day plot - Atmospheric Pressure Atmospheric Pressure (PRES):30.18 in
5-day plot - Air Temperature Air Temperature (ATMP): 57.2 °F
5-day plot - Water Temperature Water Temperature (WTMP): 55.6 °F
5-day plot - Wind Speed at 10 Meters Wind Speed at 10 meters (WSPD10M): 1.9 kts
5-day plot - Wind Speed at 20 Meters Wind Speed at 20 meters (WSPD20M): 1.9 kts
5-day plot -  Wind Speed, Wind Gust and Atmospheric Pressure Combined plot of Wind Speed, Gust, and Air Pressure
NOS Water Level Observation Network Water Level
Previous observations
TIME
(PST)
5-day plot - Wind Direction
WDIR
 
5-day plot - Wind Speed
WSPD
kts
5-day plot - Wind Gust
GST
kts
5-day plot - Wave Height
WVHT
ft
5-day plot - Dominant Wave Period
DPD
sec
5-day plot - Average Wave Period
APD
sec
5-day plot - Mean Wave Direction
MWD
 
5-day plot - Atmospheric Pressure
PRES
in
5-day plot - Pressure Tendency
PTDY
in
5-day plot - Air Temperature
ATMP
°F
5-day plot - Water Temperature
WTMP
°F
5-day plot - Dew Point
DEWP
°F
5-day plot - Salinity
SAL
psu
5-day plot - Visibility
VIS
nmi
5-day plot - Tide (above MLLW)
TIDE
ft
2024-02-21 02:24 pmSSW 2.9 5.1----30.18- 56.8 55.6----
2024-02-21 02:18 pm S 2.9 5.1----30.18- 56.5 55.6----
2024-02-21 02:12 pmSSW 4.1 7.0----30.18- 56.1 55.6----
2024-02-21 02:06 pm S 4.1 5.1----30.18- 56.1 55.6----
2024-02-21 02:00 pm S 4.1 6.0----30.18-0.01 55.8 55.8----
2024-02-21 01:54 pmSSW 2.9 5.1----30.19- 55.4 55.8----
2024-02-21 01:48 pmSSW 5.1 7.0----30.19- 55.0 55.6----
2024-02-21 01:42 pmWSW 2.9 6.0----30.19- 55.0 55.6----
2024-02-21 01:36 pm S 4.1 7.0----30.19- 54.9 55.6----
2024-02-21 01:30 pmSSE 2.9 5.1----30.19- 54.7 55.6----
2024-02-21 01:24 pmESE 2.9 5.1----30.19- 54.7 55.6----
2024-02-21 01:18 pmSSE 4.1 6.0----30.19- 54.1 55.6----
2024-02-21 01:12 pm S 1.9 5.1----30.19- 54.0 55.6----
2024-02-21 01:06 pmSSE 4.1 6.0----30.19- 54.1 55.6----
2024-02-21 01:00 pm S 6.0 8.9----30.19+0.02 54.5 55.6----
2024-02-21 12:54 pmSSW 5.1 7.0----30.20- 54.3 55.6----
2024-02-21 12:48 pm S 5.1 8.0----30.20- 53.4 55.6----
2024-02-21 12:42 pm S 5.1 8.9----30.20- 54.0 55.6----
2024-02-21 12:36 pm S 7.0 9.9----30.20- 54.1 55.6----
2024-02-21 12:30 pm S 7.0 9.9----30.20- 54.7 55.6----
2024-02-21 12:24 pm S 6.0 9.9----30.19- 55.2 55.8----
2024-02-21 12:18 pm S 6.0 8.9----30.19- 55.2 55.8----
2024-02-21 12:12 pm S 7.0 8.9----30.19- 55.4 55.8----
2024-02-21 12:06 pmSSE 6.0 8.9----30.20- 55.2 55.8----
2024-02-21 12:00 pmSSE 7.0 8.9----30.20+0.04 55.2 55.8----
2024-02-21 11:54 am S 5.1 8.0----30.20- 55.2 55.8----
2024-02-21 11:48 amSSE 6.0 8.0----30.20- 54.7 55.8----
2024-02-21 11:42 amSSE 6.0 8.0----30.20- 54.7 55.6----
2024-02-21 11:36 amSSE 6.0 8.0----30.20- 54.3 55.6----
2024-02-21 11:30 amSSE 7.0 8.9----30.20- 54.0 55.8----
2024-02-21 11:24 amSSE 7.0 11.1----30.20- 53.8 55.8----
2024-02-21 11:18 amSSE 6.0 9.9----30.20- 53.4 55.8----
2024-02-21 11:12 amSSE 6.0 8.9----30.19- 53.4 55.9----
2024-02-21 11:06 amSSE 7.0 9.9----30.19- 53.4 55.9----
2024-02-21 11:00 amSSE 5.1 9.9----30.19+0.06 53.4 55.8----
2024-02-21 10:54 amSSE 7.0 11.1----30.19- 53.2 55.8----
2024-02-21 10:48 amSSE 8.0 11.1----30.19- 53.4 55.8----
2024-02-21 10:42 amSSE 7.0 9.9----30.19- 53.1 55.8----
2024-02-21 10:36 amSSE 6.0 8.0----30.19- 53.1 55.6----
2024-02-21 10:30 am SE 4.1 7.0----30.19- 52.9 55.6----
2024-02-21 10:24 amSSE 4.1 7.0----30.18- 52.5 55.6----
2024-02-21 10:18 am SE 2.9 5.1----30.18- 52.3 55.6----
2024-02-21 10:12 am SE 4.1 6.0----30.18- 51.6 55.6----
2024-02-21 10:06 amSSE 4.1 7.0----30.18- 51.6 55.4----
2024-02-21 10:00 am SE 4.1 6.0----30.18+0.06 51.3 55.4----
2024-02-21 09:54 am SE 2.9 6.0----30.18- 51.3 55.4----
2024-02-21 09:48 amSSE 5.1 8.0----30.17- 51.3 55.4----
2024-02-21 09:42 amSSE 6.0 8.0----30.17- 51.3 55.6----
2024-02-21 09:36 amSSE 5.1 8.0----30.17- 51.3 55.6----
2024-02-21 09:30 amSSE 5.1 7.0----30.17- 51.3 55.4----
2024-02-21 09:24 amSSE 4.1 7.0----30.16- 51.4 55.4----
2024-02-21 09:18 amSSE 6.0 8.0----30.16- 51.3 55.6----
2024-02-21 09:12 amSSE 5.1 7.0----30.16- 51.3 55.6----
2024-02-21 09:06 amSSE 5.1 7.0----30.16- 51.3 55.4----
2024-02-21 09:00 am S 5.1 7.0----30.15+0.06 51.4 55.4----
2024-02-21 08:54 am S 1.9 2.9----30.15- 51.3 55.4----
2024-02-21 08:48 am SW 2.9 8.0----30.15- 50.7 55.4----
2024-02-21 08:42 am S 5.1 8.0----30.14- 51.3 55.4----
2024-02-21 08:36 amSSE 5.1 8.0----30.14- 51.3 55.4----
2024-02-21 08:30 am SE 5.1 7.0----30.14- 50.9 55.4----
2024-02-21 08:24 am SE 2.9 6.0----30.14- 50.4 55.4----
2024-02-21 08:18 am E 1.0 1.9----30.13- 50.5 55.4----
2024-02-21 08:12 am E 1.0 2.9----30.13- 50.0 55.4----
2024-02-21 08:06 am E 1.0 1.9----30.13- 49.8 55.4----
2024-02-21 08:00 am- 0.0 1.9----30.13+0.04 50.2 55.4----
2024-02-21 07:54 am- 0.0 1.0----30.12- 50.2 55.4----
2024-02-21 07:48 am- 0.0 1.9----30.12- 49.8 55.4----
2024-02-21 07:42 am- 0.0 1.0----30.12- 50.2 55.4----
2024-02-21 07:36 am- 0.0 0.0----30.12- 50.0 55.4----
2024-02-21 07:30 am- 0.0 1.9----30.11- 49.6 55.4----
2024-02-21 07:24 am- 0.0 1.9----30.11- 49.5 55.4----
2024-02-21 07:18 am- 0.0 1.0----30.11- 49.3 55.4----
2024-02-21 07:12 am W 1.0 1.9----30.11- 48.9 55.4----
2024-02-21 07:06 amWSW 1.0 1.9----30.11- 48.9 55.4----
2024-02-21 07:00 amWSW 1.0 1.9----30.11+0.02- 55.4----
2024-02-21 06:54 am- 0.0 1.0----30.11-- 55.4----
2024-02-21 06:48 am- 0.0 1.0----30.11- 48.6 55.4----
2024-02-21 06:42 am- 0.0 1.0----30.11- 48.2 55.4----
2024-02-21 06:36 am- 0.0 1.9----30.11- 48.2 55.6----
2024-02-21 06:30 am S 1.0 1.9----30.10- 48.0 55.6----
2024-02-21 06:24 am- 0.0 2.9----30.10- 48.0 55.6----
2024-02-21 06:18 amSSW 1.0 1.0----30.10- 48.0 55.4----
2024-02-21 06:12 am- 0.0 1.9----30.10- 47.7 55.4----
2024-02-21 06:06 amWSW 1.0 1.9----30.10- 47.7 55.6----
2024-02-21 06:00 am W 1.0 1.9----30.10+0.01 47.5 55.6----
2024-02-21 05:54 am SW 1.9 1.9----30.10- 47.7 55.8----
2024-02-21 05:48 am- 0.0 1.9----30.10- 47.7 55.8----
2024-02-21 05:42 am- 0.0 0.0----30.09- 47.5 55.8----
2024-02-21 05:36 am NW 1.0 1.9----30.10- 47.5 55.8----
2024-02-21 05:30 am- 0.0 1.0----30.10- 47.5 55.8----
2024-02-21 05:24 amNNE 1.0 1.9----30.09- 47.7 55.8----
2024-02-21 05:18 am- 0.0 1.0----30.09- 47.7 55.6----
2024-02-21 05:12 amNNW 1.0 1.9----30.09- 47.7 55.6----
2024-02-21 05:06 am NW 1.0 1.9----30.09- 47.7 55.8----
2024-02-21 05:00 am- 0.0 1.9----30.09+0.01 47.7 55.8----
2024-02-21 04:54 am NW 1.9 2.9----30.09- 47.7 55.8----
2024-02-21 04:48 am W 1.0 1.9----30.09- 47.7 55.8----
2024-02-21 04:42 am- 0.0 1.0----30.09- 47.8 55.8----
2024-02-21 04:36 am W 1.0 2.9----30.09- 47.8 55.8----
2024-02-21 04:30 amWNW 1.9 2.9----30.09- 48.2 55.8----
2024-02-21 04:24 am NW 1.0 1.9----30.09- 48.2 55.9----
2024-02-21 04:18 am- 0.0 1.0----30.09- 48.4 55.9----
2024-02-21 04:12 am- 0.0 1.0----30.09- 48.6 55.8----
2024-02-21 04:06 am- 0.0 1.0----30.09- 48.6 55.8----
2024-02-21 04:00 am- 0.0 1.0----30.09+0.02 48.4 55.8----
2024-02-21 03:54 am- 0.0 1.0----30.09- 48.4 55.8----
2024-02-21 03:48 am- 0.0 2.9----30.09- 48.4 55.8----
2024-02-21 03:42 am W 1.0 1.9----30.09- 48.4 55.8----
2024-02-21 03:36 amNNW 1.0 2.9----30.09- 48.6 55.8----
2024-02-21 03:30 amWNW 1.9 2.9----30.09- 48.4 55.6----
2024-02-21 03:24 amWNW 1.9 2.9----30.09- 48.2 55.6----
2024-02-21 03:18 am W 1.9 2.9----30.09- 48.4 55.6----
2024-02-21 03:12 am NW 1.9 2.9----30.09- 48.4 55.6----
2024-02-21 03:06 am NW 1.9 2.9----30.08- 48.4 55.6----
2024-02-21 03:00 amNNW 1.9 2.9----30.09+0.02 48.4 55.6----
2024-02-21 02:54 amNNW 1.9 2.9----30.09- 48.6 55.6----
2024-02-21 02:48 amNNW 1.9 2.9----30.09- 48.7 55.6----
2024-02-21 02:42 am NW 1.9 2.9----30.09- 48.7 55.6----
2024-02-21 02:36 am NW 1.9 2.9----30.09- 48.7 55.6----
2024-02-21 02:30 am NW 2.9 2.9----30.09- 48.9 55.6----
2024-02-21 02:24 am NW 2.9 4.1----30.08- 48.9 55.6----
2024-02-21 02:18 am NW 2.9 5.1----30.09- 49.3 55.6----
2024-02-21 02:12 am NW 2.9 5.1----30.09- 49.3 55.4----
2024-02-21 02:06 am NW 4.1 5.1----30.08- 49.5 55.4----
2024-02-21 02:00 amNNW 5.1 7.0----30.08+0.01 49.1 55.4----
2024-02-21 01:54 am NW 6.0 6.0----30.08- 49.5 55.4----
2024-02-21 01:48 am NW 4.1 5.1----30.08- 50.0 55.4----
2024-02-21 01:42 amWNW 4.1 5.1----30.08- 50.4 55.4----
2024-02-21 01:36 amWNW 4.1 5.1----30.08- 50.5 55.2----
2024-02-21 01:30 amWNW 4.1 6.0----30.08- 50.9 55.2----
2024-02-21 01:24 am NW 4.1 5.1----30.08- 51.1 55.2----
2024-02-21 01:18 am NW 2.9 4.1----30.07- 51.3 55.2----
2024-02-21 01:12 amWNW 2.9 4.1----30.07- 51.1 55.4----
2024-02-21 01:06 amWNW 2.9 4.1----30.07- 51.3 55.4----
2024-02-21 01:00 amWNW 2.9 5.1----30.07+0.00 51.3 55.6----
2024-02-21 12:54 am W 4.1 5.1----30.07- 51.4 55.6----
2024-02-21 12:48 am W 4.1 5.1----30.06- 51.6 55.6----
2024-02-21 12:42 am W 2.9 4.1----30.06- 51.8 55.6----
2024-02-21 12:36 am W 2.9 4.1----30.06- 52.0 55.6----
2024-02-21 12:30 am W 2.9 5.1----30.06- 52.0 55.6----
2024-02-21 12:24 am W 2.9 5.1----30.06- 52.3 55.6----
2024-02-21 12:18 am W 1.9 1.9----30.06- 52.5 55.6----
2024-02-21 12:12 am SW 1.0 1.9----30.06- 52.5 55.6----
2024-02-21 12:06 am- 0.0 1.0----30.06- 52.5 55.6----
2024-02-21 12:00 am- 0.0 1.0----30.06+0.00 52.5 55.6----
2024-02-20 11:54 pm NW 1.0 1.0----30.06- 52.5 55.6----
2024-02-20 11:48 pm- 0.0 0.0----30.06- 52.2 55.6----
2024-02-20 11:42 pm- 0.0 1.9----30.06- 52.5 55.6----
2024-02-20 11:36 pmSSW 1.0 1.9----30.06- 52.3 55.6----
2024-02-20 11:30 pmSSW 1.0 1.9----30.06- 52.5 55.4----
2024-02-20 11:24 pm S 1.9 2.9----30.06- 52.5 55.4----
2024-02-20 11:18 pmSSE 1.9 2.9----30.06- 52.5 55.4----
2024-02-20 11:12 pm S 1.9 4.1----30.06- 52.7 55.4----
2024-02-20 11:06 pm S 2.9 5.1----30.06- 52.7 55.4----
2024-02-20 11:00 pm S 2.9 5.1----30.06+0.02- 55.4----
2024-02-20 10:54 pm S 4.1 6.0----30.06-- 55.4----
2024-02-20 10:48 pmSSE 5.1 6.0----30.06- 52.9 55.4----
2024-02-20 10:42 pmSSE 4.1 5.1----30.06- 52.7 55.4----
2024-02-20 10:36 pmSSE 1.9 4.1----30.06- 52.7 55.4----
2024-02-20 10:30 pm S 2.9 4.1----30.06- 52.5 55.4----
2024-02-20 10:24 pmSSE 1.9 2.9----30.06- 52.5 55.4----
2024-02-20 10:18 pmSSE 1.9 4.1----30.06- 52.3 55.4----
2024-02-20 10:12 pmSSE 1.9 2.9----30.06- 52.3 55.4----
2024-02-20 10:06 pm SE 1.0 2.9----30.06- 52.3 55.4----
2024-02-20 10:00 pm SE 1.9 4.1----30.06+0.02 52.2 55.4----
2024-02-20 09:54 pm SE 1.9 4.1----30.06- 52.0 55.2----
2024-02-20 09:48 pm SE 1.0 2.9----30.06- 52.2 55.2----
2024-02-20 09:42 pm SE 1.9 2.9----30.06- 52.2 55.2----
2024-02-20 09:36 pm SE 1.0 1.9----30.06- 52.0 55.2----
2024-02-20 09:30 pm- 0.0 1.0----30.06- 52.0 55.2----
2024-02-20 09:24 pm- 0.0 2.9----30.06- 52.0 55.2----
2024-02-20 09:18 pmESE 1.9 2.9----30.06- 52.0 55.2----
2024-02-20 09:12 pmESE 1.0 2.9----30.06- 52.0 55.2----
2024-02-20 09:06 pmESE 1.9 2.9----30.06- 52.0 55.2----
2024-02-20 09:00 pmESE 1.9 2.9----30.06+0.03 52.0 55.2----
2024-02-20 08:54 pmESE 1.0 4.1----30.06- 51.8 55.0----
2024-02-20 08:48 pmESE 1.9 4.1----30.05- 51.8 55.0----
2024-02-20 08:42 pm SE 1.9 4.1----30.05- 52.0 55.0----
2024-02-20 08:36 pm SE 1.9 4.1----30.05- 51.8 55.0----
2024-02-20 08:30 pm SE 1.9 5.1----30.05- 51.8 55.0----
2024-02-20 08:24 pm SE 1.9 5.1----30.05- 51.8 55.0----
2024-02-20 08:18 pmESE 2.9 5.1----30.05- 51.8 55.0----
2024-02-20 08:12 pm SE 1.9 4.1----30.05- 51.6 55.0----
2024-02-20 08:06 pmESE 1.9 4.1----30.05- 51.4 55.0----
2024-02-20 08:00 pm SE 1.9 4.1----30.05+0.03 51.4 55.0----
2024-02-20 07:54 pmESE 1.9 5.1----30.04- 51.4 55.0----
2024-02-20 07:48 pm SE 1.9 5.1----30.04- 51.4 55.0----
2024-02-20 07:42 pmESE 1.9 4.1----30.04- 51.3 55.0----
2024-02-20 07:36 pm SE 1.9 4.1----30.04- 51.4 55.0----
2024-02-20 07:30 pm SE 1.9 5.1----30.04- 51.6 55.0----
2024-02-20 07:24 pm SE 1.9 5.1----30.04- 51.4 55.0----
2024-02-20 07:18 pm SE 1.9 4.1----30.04- 51.6 55.0----
2024-02-20 07:12 pm SE 1.9 5.1----30.04- 51.6 55.0----
2024-02-20 07:06 pm SE 1.9 4.1----30.04- 51.6 55.2----
2024-02-20 07:00 pm SE 2.9 5.1----30.04- 51.8 55.2----
2024-02-20 06:54 pm SE 4.1 6.0----30.03- 52.0 55.2----
2024-02-20 06:48 pm SE 4.1 6.0----30.03- 52.3 55.2----
2024-02-20 06:42 pmSSE 2.9 6.0----30.03- 52.5 55.2----
2024-02-20 06:36 pm SE 4.1 5.1----30.03- 52.9 55.2----
2024-02-20 06:30 pm SE 2.9 5.1----30.03- 53.1 55.2----
2024-02-20 06:24 pmSSE 4.1 6.0----30.03- 53.1 55.4----
2024-02-20 06:18 pmESE 1.9 2.9----30.03- 53.6 55.4----
2024-02-20 06:12 pm E 1.0 2.9----30.03- 53.6 55.2----
2024-02-20 06:06 pmESE 2.9 4.1----30.03- 53.4 55.2----
2024-02-20 06:00 pm S 1.9 2.9----30.02-0.02 53.4 55.2----
2024-02-20 05:54 pm S 1.9 2.9----30.02- 53.4 55.2----
2024-02-20 05:48 pmSSE 1.0 1.9----30.02- 53.2 55.2----
2024-02-20 05:42 pmSSE 1.9 4.1----30.02- 53.2 55.2----
2024-02-20 05:36 pm S 1.9 4.1----30.02- 53.2 55.2----
2024-02-20 05:30 pm S 2.9 4.1----30.02- 53.2 55.2----
2024-02-20 05:24 pm S 4.1 5.1----30.02- 53.1 55.2----
2024-02-20 05:18 pm S 4.1 5.1----30.02- 53.1 55.2----
2024-02-20 05:12 pm S 2.9 4.1----30.02- 53.1 55.2----
2024-02-20 05:06 pm S 4.1 6.0----30.02- 52.9 55.2----
2024-02-20 05:00 pmSSE 4.1 5.1----30.02-0.03 52.9 55.2----
2024-02-20 04:54 pmSSE 1.9 4.1----30.02- 52.9 55.2----
2024-02-20 04:48 pm S 2.9 5.1----30.02- 52.9 55.2----
2024-02-20 04:42 pm SE 1.9 5.1----30.02- 52.9 55.2----
2024-02-20 04:36 pm SE 2.9 5.1----30.02- 53.2 55.2----
2024-02-20 04:30 pm SE 2.9 6.0----30.02- 53.1 55.2----
2024-02-20 04:24 pmSSE 4.1 6.0----30.02- 52.9 55.2----
2024-02-20 04:18 pm SE 2.9 5.1----30.02- 53.1 55.2----
2024-02-20 04:12 pm SE 2.9 5.1----30.02- 53.2 55.2----
2024-02-20 04:06 pm SE 2.9 6.0----30.02- 53.2 55.2----
2024-02-20 03:54 pm SE 2.9 6.0----30.02- 53.2 55.2----
2024-02-20 03:48 pm SE 4.1 9.9----30.03- 53.1 55.2----
2024-02-20 03:42 pmSSE 6.0 8.9----30.03- 52.5 55.2----
2024-02-20 03:36 pmSSE 4.1 8.0----30.03- 52.3 55.2----
2024-02-20 03:30 pm S 6.0 8.0----30.03- 52.0 55.2----
2024-02-20 03:24 pmSSE 5.1 8.0----30.03- 52.0 55.2----
2024-02-20 03:18 pmSSE 2.9 7.0----30.03- 52.0 55.2----
2024-02-20 03:12 pm SE 2.9 6.0----30.03- 52.0 55.2----
2024-02-20 03:06 pmSSE 4.1 6.0----30.04- 51.8 55.2----
2024-02-20 03:00 pmSSE 4.1 5.1----30.04+0.00 51.6 55.2----
2024-02-20 02:54 pmSSE 2.9 5.1----30.04- 51.4 55.2----